Regional Weather Roundup
Issued by NWS

Home | Current Version | Previous Version | Graphics & Text | Print | Product List | Glossary On
Versions: 1 2 3 4 5 6 7 8 9 10 11 12 13 14 15 16 17 18 19 20 21 22 23 24 25 26 27 28 29 30 31 32 33 34 35 36 37 38 39 40 41 42 43 44 45 46 47 48 49 50
057
ASUS43 KLSX 300610
RWRMO

WEATHER SUMMARY FOR MISSOURI
NATIONAL WEATHER SERVICE SPRINGFIELD MO
100 AM CDT TUE MAY 30 2017

NOTE: "FAIR" INDICATES FEW OR NO CLOUDS BELOW 12,000 FEET WITH NO
       SIGNIFICANT WEATHER AND/OR OBSTRUCTIONS TO VISIBILITY.
       CURRENT SKY AND/OR WEATHER CONDITIONS ARE NOT AVAILABLE FOR
       CHILLICOTHE AND FARMINGTON.

MOZ001>031-035>038-043-044-053-054-300700-
...NORTHERN AND WESTERN MISSOURI...

CITY           SKY/WX    TMP DP  RH WIND       PRES   REMARKS
KANSAS CTY INT CLEAR     64  41  42 N3        30.06R
6HR MIN TEMP:  61; 6HR MAX TEMP:  77;

KANSAS C DTWN  CLEAR     66  47  50 CALM      30.05R
6HR MIN TEMP:  63; 6HR MAX TEMP:  79;

LEE`S SUMMIT   PTCLDY    64  44  48 N5        30.07R
6HR MIN TEMP:  63; 6HR MAX TEMP:  78;

ST JOSEPH      CLEAR     56  48  74 CALM      30.06R
6HR MIN TEMP:  56; 6HR MAX TEMP:  79;

CHILLICOTHE      N/A     56  50  80 CALM      30.05R
6HR MIN TEMP:  56; 6HR MAX TEMP:  77;

KIRKSVILLE     CLOUDY    57  50  78 NW6       30.04R
6HR MIN TEMP:  51; 6HR MAX TEMP:  75;


$$
MOZ066>068-077>081-088>096-101>105-300700-
...SOUTHWEST MISSOURI...

CITY           SKY/WX    TMP DP  RH WIND       PRES   REMARKS
SPRINGFIELD    CLEAR     63  57  81 CALM      30.05R
6HR MIN TEMP:  62; 6HR MAX TEMP:  80;

JOPLIN         CLEAR     62  59  90 CALM      30.06R
6HR MIN TEMP:  61; 6HR MAX TEMP:  82;

BRANSON        MOCLDY    66  57  72 CALM      30.07R

$$
MOZ032>034-039>042-045>050-055>058-069>072-300700-
...CENTRAL MISSOURI...

CITY           SKY/WX    TMP DP  RH WIND       PRES   REMARKS
COLUMBIA       PTCLDY    64  55  72 NW3       30.03R
6HR MIN TEMP:  63; 6HR MAX TEMP:  78;

JEFFERSON CITY PTCLDY    61  55  81 NW3       30.02R
6HR MIN TEMP:  61; 6HR MAX TEMP:  82;

ROLLA          PTCLDY    59  53  80 SW3       30.02S
6HR MIN TEMP:  58; 6HR MAX TEMP:  76;

SEDALIA        PTCLDY    64  54  69 NW6       30.05R
6HR MIN TEMP:  63; 6HR MAX TEMP:  80;

WHITEMAN AFB   CLEAR     61  53  76 N5        30.04R
WARRENSBURG    CLEAR     61  52  72 NW5       30.05R
OSAGE BEACH    CLEAR     57  56  96 CALM      30.04R

$$
MOZ051-052-059>065-300700-
...EAST CENTRAL MISSOURI...

CITY           SKY/WX    TMP DP  RH WIND       PRES   REMARKS
ST LOUIS INTL  PTCLDY    65  56  72 NW3       30.00S
6HR MIN TEMP:  65; 6HR MAX TEMP:  78;

SPIRIT OF STL  PTCLDY    58  58 100 CALM      30.00R
6HR MIN TEMP:  57; 6HR MAX TEMP:  77;

ST CHARLES     MOCLDY    62  59  90 CALM      29.99R
6HR MIN TEMP:  60; 6HR MAX TEMP:  78;


$$
MOZ072>076-082>087-097>100-106>115-300700-
...SOUTH CENTRAL AND SOUTHEAST MISSOURI...

CITY           SKY/WX    TMP DP  RH WIND       PRES   REMARKS
CAPE GIRARDEAU CLEAR     64  60  87 CALM      30.00R
6HR MIN TEMP:  63; 6HR MAX TEMP:  81;

FARMINGTON     CLEAR     57  55  93 CALM      30.03S
6HR MIN TEMP:  57; 6HR MAX TEMP:  80;

POPLAR BLUFF   PTCLDY    69  62  78 NW3       30.01R
6HR MIN TEMP:  68; 6HR MAX TEMP:  81;

WEST PLAINS    MOCLDY    60  58  92 CALM      30.05S
6HR MIN TEMP:  60; 6HR MAX TEMP:  80;


$$




USA.gov is the U.S. government's official web portal to all federal, state and local government web resources and services.